Regional Weather Roundup
Issued by NWS

Home | Current Version | Previous Version | Graphics & Text | Print | Product List | Glossary On
Versions: 1 2 3 4 5 6 7 8 9 10 11 12 13 14 15 16 17 18 19 20 21 22 23 24 25 26 27 28 29 30 31 32 33 34 35 36 37 38 39 40 41 42 43 44 45 46 47 48 49 50
042
ASUS45 KCYS 230610
RWRWY

WYOMING REGIONAL WEATHER ROUNDUP
NATIONAL WEATHER SERVICE CHEYENNE WY
1100 PM MST SUN JAN 22 2017

NOTE:  "FAIR" INDICATES FEW OR NO CLOUDS BELOW 12,000 FEET
WITH NO SIGNIFICANT WEATHER AND/OR OBSTRUCTIONS TO VISIBILITY.

WYZ001-230700-
YELLOWSTONE NATIONAL PARK

CITY           SKY/WX    TMP DP  RH WIND       PRES   REMARKS
LK YELLOWSTONE   N/A     17  15  92 CALM      29.68R
6HR MIN TEMP:  17; 6HR MAX TEMP:  21; 6HR PCP:  0.05;

W YELLOWSTONE  NOT AVBL

$$
WYZ002>013-054>058-071-098>099-230700-
NORTHERN WYOMING

CITY           SKY/WX    TMP DP  RH WIND       PRES   REMARKS
JACKSON        CLOUDY    21  19  93 W6        29.70F WCI  14
CODY           FAIR      18  12  77 S5        29.66S WCI  11
GREYBULL       FAIR      12   8  84 NW7       29.69F WCI   1
6HR MIN TEMP:   9; 6HR MAX TEMP:  18;

WORLAND        CLOUDY    27  21  78 SE13      29.67F WCI  16
6HR MIN TEMP:  15; 6HR MAX TEMP:  27;

SHERIDAN       FAIR      19  15  84 SW9       29.67F WCI   8
6HR MIN TEMP:  18; 6HR MAX TEMP:  33;

BUFFALO        FAIR      28  11  48 W7        29.63F WCI  21
6HR MIN TEMP:  22; 6HR MAX TEMP:  31;

GILLETTE       FAIR      30  19  63 S13       29.67F WCI  20
6HR MIN TEMP:  25; 6HR MAX TEMP:  32;

HULETT         FAIR      28  18  64 S7        29.72S WCI  21
NEWCASTLE      FAIR      28  18  64 E7        29.76F WCI  21

$$
WYZ014>020-022>026-101>103-230700-
CENTRAL WYOMING

CITY           SKY/WX    TMP DP  RH WIND       PRES   REMARKS
BIG PINEY      FLURRIES  15  13  91 CALM      29.73F
6HR MIN TEMP:  15; 6HR MAX TEMP:  16; 6HR PCP:  0.09;

PINEDALE       LGT SNOW  18  18 100 W5        29.72F WCI  11
DUBOIS         NOT AVBL
LANDER         FAIR      21  14  74 W6        29.68F WCI  13
6HR MIN TEMP:  18; 6HR MAX TEMP:  23;

RIVERTON       CLOUDY    22  19  89 CALM      29.69F
6HR MIN TEMP:  12; 6HR MAX TEMP:  22; 6HR PCP: TRACE;

CASPER         MOCLDY    31  22  69 SW22      29.70F WCI  18
6HR MIN TEMP:  28; 6HR MAX TEMP:  32; 6HR PCP: TRACE;

DOUGLAS        MOCLDY    31  15  52 S5        29.73S WCI  26
6HR MIN TEMP:  27; 6HR MAX TEMP:  36;


$$
WYZ021-027>030-104>119-230700-
SOUTHERN WYOMING

CITY           SKY/WX    TMP DP  RH WIND       PRES   REMARKS
EVANSTON       LGT SNOW  19  15  84 E13       29.67F VSB 3/4 WCI   6
6HR MIN TEMP:  19; 6HR MAX TEMP:  23; 6HR PCP:  0.16;

ROCK SPRINGS   LGT SNOW  26  19  74 S15       29.71F WCI  14
6HR MIN TEMP:  25; 6HR MAX TEMP:  28; 6HR PCP: TRACE;

RAWLINS        CLOUDY    27  19  72 SW20      29.74F WCI  13
6HR MIN TEMP:  25; 6HR MAX TEMP:  27; 6HR PCP: TRACE;

LARAMIE        FLURRIES  24  15  68 S10       29.74S WCI  14
6HR MIN TEMP:  19; 6HR MAX TEMP:  25; 6HR PCP: TRACE;

CHEYENNE       CLOUDY    28  12  51 S14       29.77F WCI  17
6HR MIN TEMP:  25; 6HR MAX TEMP:  33;

TORRINGTON     FAIR      23  16  74 E5        29.79F WCI  17
6HR MIN TEMP:  23; 6HR MAX TEMP:  37;


$$




USA.gov is the U.S. government's official web portal to all federal, state and local government web resources and services.